This is the latest recevied weather packets stored in our database for station/object DB7GV-8. If no packets are shown the sender has not sent any weather packets the latest 10 day(s).
| Time | Temp. | Humidity | Pressure | Rain* | Wind** | Luminosity | Snow |
|---|---|---|---|---|---|---|---|
| 1776985163 | 5.56° C | 60% | 1024 hPa | - | - | - | - |
| 1776984258 | 6.11° C | 60% | 1024 hPa | - | - | - | - |
| 1776983353 | 6.11° C | 59% | 1024.1 hPa | - | - | - | - |
| 1776982448 | 6.67° C | 59% | 1024 hPa | - | - | - | - |
| 1776981542 | 7.22° C | 58% | 1024 hPa | - | - | - | - |
| 1776980637 | 7.22° C | 57% | 1023.8 hPa | - | - | - | - |
| 1776979731 | 7.22° C | 56% | 1023.8 hPa | - | - | - | - |
| 1776978825 | 7.78° C | 56% | 1023.8 hPa | - | - | - | - |
| 1776977920 | 8.33° C | 55% | 1023.7 hPa | - | - | - | - |
| 1776976109 | 8.89° C | 53% | 1023.5 hPa | - | - | - | - |
| 1776975204 | 9.44° C | 52% | 1023.5 hPa | - | - | - | - |
| 1776974298 | 10° C | 51% | 1023.5 hPa | - | - | - | - |
| 1776973393 | 10° C | 50% | 1023.3 hPa | - | - | - | - |
| 1776972488 | 10.56° C | 48% | 1023.3 hPa | - | - | - | - |
| 1776971582 | 11.67° C | 46% | 1023.1 hPa | - | - | - | - |
| 1776970677 | 12.22° C | 45% | 1023 hPa | - | - | - | - |
| 1776969772 | 12.78° C | 45% | 1022.9 hPa | - | - | - | - |
| 1776968866 | 13.89° C | 43% | 1022.8 hPa | - | - | - | - |
| 1776967961 | 14.44° C | 41% | 1022.7 hPa | - | - | - | - |
| 1776967056 | 15.56° C | 40% | 1022.6 hPa | - | - | - | - |
| 1776966150 | 16.67° C | 37% | 1022.7 hPa | - | - | - | - |
| 1776965244 | 17.78° C | 32% | 1022.6 hPa | - | - | - | - |
| 1776964340 | 18.89° C | 27% | 1022.5 hPa | - | - | - | - |
| 1776963434 | 20.56° C | 24% | 1022.5 hPa | - | - | - | - |
| 1776962528 | 21.67° C | 23% | 1022.5 hPa | - | - | - | - |
* Rain since midnight (hover to see other rain measurements)
** Current wind speed in m/s (hover to see current wind gust speed)